Change the Weather History Date:

Tuesday, January 29, 2013

  Actual Average Record
Temperature  
Mean Temperature 13 °F -  
Max Temperature 28 °F 24 °F 39 °F (1998)
Min Temperature -2 °F 1 °F -22 °F (2015)
Degree Days  
Heating Degree Days 52    
Moisture  
Dew Point 15 °F    
Average Humidity 83    
Maximum Humidity 93    
Minimum Humidity 75    
Precipitation  
Precipitation 0.00 in - - ()
Sea Level Pressure  
Sea Level Pressure 30.12 in    
Wind  
Wind Speed 1 mph (WNW)    
Max Wind Speed 6 mph    
Max Gust Speed -    
Visibility 10 miles    
Events Rain , Snow    
Averages and records for this station are not official NWS values.
T = Trace of Precipitation, MM = Missing Value Source: NWS Daily Summary

Daily Weather History Graph

Daily Weather History Graph

Search for Another Location

Airport or City:

Trip Planner

Search our weather history database for the weather conditions in past years. The results will help you decide how hot, cold, wet, or windy it might be!

Date:

Astronomy

Jan. 29, 2013 Rise Set
Actual Time 7:07 AM EST 4:51 PM EST
Civil Twilight 6:36 AM EST 5:22 PM EST
Nautical Twilight 6:01 AM EST 5:57 PM EST
Astronomical Twilight 5:27 AM EST 6:32 PM EST
Moon 7:53 PM EST (1/29) 7:55 AM EST (1/29)
Length of Visible Light 10h 46m
Length of Day
9h 44m
Waning Gibbous, 94% of the Moon is Illuminated
Jan 29
Waning Gibbous
Feb 3
Last Quarter
Feb 10
New
Feb 17
First Quarter
Feb 25
Full

Hourly Weather History & Observations

Time (EST) Temp. Windchill Dew Point Humidity Pressure Visibility Wind Dir Wind Speed Gust Speed Precip Events Conditions
12:52 AM 17.1 °F - 12.0 °F 81% 30.07 in 8.0 mi Calm Calm - 0.00 in Snow Light Snow
1:52 AM 15.1 °F - 10.9 °F 84% 30.08 in 9.0 mi Calm Calm - 0.00 in Snow Light Snow
2:52 AM 8.1 °F - 5.0 °F 87% 30.08 in 10.0 mi Calm Calm - 0.00 in   Mostly Cloudy
3:52 AM 5.0 °F - 1.9 °F 87% 30.11 in 10.0 mi Calm Calm - N/A   Clear
4:52 AM 3.0 °F - -2.0 °F 80% 30.12 in 10.0 mi Calm Calm - N/A   Clear
5:52 AM 1.0 °F - -4.0 °F 79% 30.15 in 10.0 mi Calm Calm - N/A   Clear
6:52 AM -2.0 °F - -7.1 °F 79% 30.13 in 10.0 mi Calm Calm - N/A   Partly Cloudy
8:52 AM 3.9 °F - -0.0 °F 84% 30.20 in 10.0 mi Calm Calm - N/A   Clear
9:52 AM 12.9 °F 6.9 °F 9.0 °F 84% 30.22 in 10.0 mi East 3.5 mph - N/A   Clear
10:52 AM 21.0 °F - 15.1 °F 78% 30.18 in 10.0 mi Calm Calm - N/A   Clear
11:52 AM 23.0 °F 18.4 °F 17.1 °F 78% 30.20 in 10.0 mi West 3.5 mph - N/A   Clear
12:52 PM 26.1 °F - 19.0 °F 75% 30.17 in 10.0 mi Calm Calm - N/A   Clear
1:52 PM 27.0 °F 21.6 °F 19.9 °F 75% 30.11 in 10.0 mi NE 4.6 mph - N/A   Clear
2:52 PM 28.0 °F 21.7 °F 21.9 °F 78% 30.12 in 10.0 mi WSW 5.8 mph - N/A   Clear
3:52 PM 27.0 °F - 21.9 °F 81% 30.13 in 10.0 mi Calm Calm - N/A   Clear
4:52 PM 27.0 °F - 21.9 °F 81% 30.14 in 10.0 mi Calm Calm - N/A   Clear
5:52 PM 23.0 °F - 19.9 °F 88% 30.16 in 10.0 mi Calm Calm - N/A   Clear
6:52 PM 24.1 °F - 21.0 °F 88% 30.15 in 10.0 mi Calm Calm - N/A   Overcast
7:52 PM 26.1 °F 21.9 °F 23.0 °F 88% 30.12 in 10.0 mi West 3.5 mph - N/A   Overcast
8:52 PM 27.0 °F - 23.0 °F 85% 30.09 in 10.0 mi Calm Calm - N/A   Overcast
9:52 PM 27.0 °F - 23.0 °F 85% 30.11 in 8.0 mi Calm Calm - N/A   Overcast
10:00 PM 26.6 °F - 23.0 °F 86% 30.04 in 8.0 mi Calm Calm - N/A   Overcast
10:52 PM 27.0 °F - 24.1 °F 89% 30.08 in 5.0 mi Calm Calm - 0.00 in Rain Light Freezing Rain
11:24 PM 26.6 °F - 24.8 °F 93% 30.01 in 10.0 mi Calm Calm - 0.00 in   Overcast
11:52 PM 28.0 °F - 25.0 °F 88% 30.07 in 10.0 mi Calm Calm - 0.00 in   Overcast